Galliano, LA

2:36 PM CDT on July 28, 2017 (GMT -0500)
Galliano

Weather History for KGAO - April, 2014

Change the Weather History Date:

Monday, April 28, 2014

  Actual Average (KHUM) Record (KHUM)
Temperature  
Mean Temperature 80 °F -  
Max Temperature 84 °F 80 °F 91 °F (1948)
Min Temperature 76 °F 62 °F 45 °F (1992)
Cooling Degree Days 15    
Growing Degree Days 30 (Base 50)    
Moisture  
Dew Point 73 °F    
Average Humidity 80    
Maximum Humidity 86    
Minimum Humidity 69    
Precipitation  
Precipitation 0.00 in - - ()
Sea Level Pressure  
Sea Level Pressure 29.74 in    
Wind  
Wind Speed 16 mph (SSE)    
Max Wind Speed 29 mph    
Max Gust Speed 39 mph    
Visibility 8 miles    
Events Rain , Thunderstorm    
Averages and records for this station are not official NWS values.
T = Trace of Precipitation, MM = Missing Value Source: NWS Daily Summary

Daily Weather History Graph

Daily Weather History Graph

Search for Another Location

Airport or City:

Trip Planner

Search our weather history database for the weather conditions in past years. The results will help you decide how hot, cold, wet, or windy it might be!

Date:

Astronomy

Apr. 28, 2014 Rise Set
Actual Time 6:21 AM CDT 7:35 PM CDT
Civil Twilight 5:56 AM CDT 8:00 PM CDT
Nautical Twilight 5:26 AM CDT 8:30 PM CDT
Astronomical Twilight 4:56 AM CDT 9:01 PM CDT
Moon 5:55 AM CDT 7:15 PM CDT
Length of Visible Light 14h 04m
Length of Day
13h 14m
Waning Crescent, 0% of the Moon is Illuminated
Apr 28
Waning Crescent
Apr 29
New
May 6
First Quarter
May 14
Full
May 21
Last Quarter

Hourly Weather History & Observations

Time (CDT) Temp. Heat Index Dew Point Humidity Pressure Visibility Wind Dir Wind Speed Gust Speed Precip Events Conditions
12:15 AM 76.8 °F - 71.6 °F 84% 29.78 in 10.0 mi SSE 13.8 mph 19.6 mph N/A   Mostly Cloudy
12:35 AM 76.3 °F - 71.6 °F 85% 29.78 in 10.0 mi SSE 10.4 mph - N/A   Mostly Cloudy
12:55 AM 76.5 °F - 72.0 °F 86% 29.77 in 10.0 mi SSE 11.5 mph 17.3 mph N/A   Mostly Cloudy
1:15 AM 76.1 °F - 71.6 °F 86% 29.75 in 10.0 mi SSE 12.7 mph - N/A   Mostly Cloudy
1:35 AM 76.3 °F - 71.8 °F 86% 29.74 in 7.0 mi SSE 16.1 mph 23.0 mph N/A   Mostly Cloudy
1:55 AM 76.5 °F - 72.0 °F 86% 29.74 in 7.0 mi SSE 15.0 mph 19.6 mph N/A   Mostly Cloudy
2:15 AM 77.2 °F - 72.1 °F 84% 29.74 in 10.0 mi SE 19.6 mph 27.6 mph N/A   Overcast
2:35 AM 77.4 °F - 71.8 °F 83% 29.74 in 10.0 mi SSE 15.0 mph 25.3 mph N/A   Overcast
2:55 AM 77.0 °F - 71.6 °F 83% 29.73 in 10.0 mi SSE 12.7 mph 26.5 mph N/A   Mostly Cloudy
3:15 AM 76.8 °F - 72.0 °F 85% 29.73 in 7.0 mi SSE 12.7 mph 19.6 mph N/A   Mostly Cloudy
3:35 AM 77.0 °F - 71.8 °F 84% 29.73 in 7.0 mi SSE 12.7 mph 19.6 mph N/A   Overcast
3:55 AM 77.0 °F - 71.8 °F 84% 29.73 in 7.0 mi SSE 12.7 mph 19.6 mph N/A   Overcast
4:15 AM 77.0 °F - 71.6 °F 83% 29.73 in 10.0 mi SSE 10.4 mph 18.4 mph N/A   Overcast
4:35 AM 77.0 °F - 71.6 °F 83% 29.74 in 10.0 mi SSE 10.4 mph 18.4 mph N/A   Overcast
4:55 AM 77.2 °F - 71.6 °F 83% 29.75 in 10.0 mi SSE 12.7 mph 20.7 mph N/A   Overcast
5:15 AM 77.4 °F - 71.8 °F 83% 29.75 in 10.0 mi SSE 9.2 mph 20.7 mph N/A   Overcast
5:35 AM 77.4 °F - 71.8 °F 83% 29.74 in 10.0 mi SSE 12.7 mph - N/A   Overcast
5:55 AM 77.4 °F - 71.8 °F 83% 29.75 in 10.0 mi SSE 11.5 mph 18.4 mph N/A   Overcast
6:15 AM 77.4 °F - 71.8 °F 83% 29.76 in 7.0 mi South 11.5 mph 17.3 mph N/A   Overcast
6:35 AM 77.9 °F - 71.6 °F 81% 29.76 in 10.0 mi SSE 13.8 mph 24.2 mph N/A   Overcast
6:55 AM 77.5 °F - 72.1 °F 83% 29.78 in 7.0 mi South 12.7 mph 17.3 mph N/A Rain Light Rain
7:15 AM 77.4 °F - 72.5 °F 85% 29.78 in 7.0 mi SSE 15.0 mph 20.7 mph N/A Thunderstorm Overcast
7:35 AM 77.5 °F - 72.1 °F 83% 29.77 in 5.0 mi SSE 17.3 mph 24.2 mph N/A   Haze
7:55 AM 78.1 °F - 72.3 °F 82% 29.78 in 7.0 mi SSE 15.0 mph 24.2 mph N/A   Overcast
8:15 AM 78.8 °F - 72.5 °F 81% 29.78 in 7.0 mi SSE 16.1 mph 25.3 mph N/A   Overcast
8:55 AM 79.7 °F - 72.5 °F 79% 29.78 in 7.0 mi SSE 18.4 mph 25.3 mph N/A   Overcast
9:15 AM 81.1 °F 85.6 °F 72.3 °F 74% 29.78 in 7.0 mi SSE 17.3 mph 29.9 mph N/A   Overcast
9:35 AM 80.8 °F 84.9 °F 72.0 °F 74% 29.79 in 7.0 mi SSE 20.7 mph 28.8 mph N/A   Mostly Cloudy
9:55 AM 80.6 °F 84.7 °F 72.1 °F 75% 29.79 in 7.0 mi SSE 24.2 mph 28.8 mph N/A   Overcast
10:15 AM 82.0 °F 87.0 °F 72.3 °F 72% 29.80 in 7.0 mi SSE 17.3 mph 23.0 mph N/A   Overcast
10:35 AM 81.5 °F 86.3 °F 72.5 °F 74% 29.81 in 7.0 mi SSE 20.7 mph 28.8 mph N/A   Overcast
10:55 AM 82.4 °F 87.7 °F 72.5 °F 72% 29.81 in 10.0 mi SSE 23.0 mph 31.1 mph N/A   Light Drizzle
11:15 AM 82.6 °F 88.1 °F 72.7 °F 72% 29.81 in 7.0 mi South 19.6 mph 28.8 mph N/A   Light Drizzle
11:35 AM 81.1 °F 85.8 °F 72.5 °F 75% 29.81 in 7.0 mi SSE 21.9 mph 28.8 mph N/A   Overcast
12:15 PM 82.6 °F 88.1 °F 72.7 °F 72% 29.81 in 7.0 mi SSE 17.3 mph 29.9 mph N/A   Overcast
12:35 PM 83.3 °F 89.3 °F 73.2 °F 71% 29.81 in 7.0 mi South 18.4 mph 24.2 mph N/A   Overcast
12:55 PM 83.1 °F 89.2 °F 73.2 °F 72% 29.80 in 7.0 mi South 19.6 mph 26.5 mph N/A   Overcast
1:15 PM 82.9 °F 88.5 °F 72.9 °F 71% 29.79 in 7.0 mi South 17.3 mph 26.5 mph N/A   Overcast
1:35 PM 84.4 °F 91.0 °F 73.2 °F 69% 29.78 in 7.0 mi SSE 20.7 mph 29.9 mph N/A   Mostly Cloudy
1:55 PM 83.3 °F 89.3 °F 73.0 °F 71% 29.77 in 7.0 mi SSE 24.2 mph 32.2 mph N/A   Mostly Cloudy
2:15 PM 82.9 °F 88.8 °F 73.2 °F 72% 29.76 in 7.0 mi South 20.7 mph 32.2 mph N/A   Scattered Clouds
2:35 PM 84.2 °F 90.6 °F 73.0 °F 69% 29.76 in 7.0 mi South 28.8 mph 35.7 mph N/A   Scattered Clouds
2:55 PM 83.3 °F 89.3 °F 72.9 °F 71% 29.75 in 7.0 mi SSE 24.2 mph 33.4 mph N/A   Mostly Cloudy
3:15 PM 83.8 °F 90.4 °F 73.4 °F 71% 29.74 in 7.0 mi SSE 24.2 mph 32.2 mph N/A   Scattered Clouds
3:35 PM 83.3 °F 89.3 °F 73.2 °F 71% 29.73 in 7.0 mi South 19.6 mph 33.4 mph N/A   Scattered Clouds
4:15 PM 82.0 °F 87.4 °F 73.0 °F 74% 29.72 in 7.0 mi SSE 21.9 mph 29.9 mph N/A   Mostly Cloudy
4:35 PM 81.5 °F 86.7 °F 73.2 °F 76% 29.71 in 7.0 mi South 18.4 mph 28.8 mph N/A   Mostly Cloudy
4:55 PM 81.9 °F 87.3 °F 73.4 °F 75% 29.71 in 7.0 mi SSE 19.6 mph 25.3 mph N/A   Overcast
5:15 PM 81.5 °F 86.7 °F 73.2 °F 76% 29.69 in 7.0 mi South 23.0 mph 29.9 mph N/A   Overcast
5:35 PM 81.0 °F 86.0 °F 73.4 °F 78% 29.68 in 7.0 mi South 24.2 mph 35.7 mph N/A   Mostly Cloudy
5:55 PM 80.6 °F 85.2 °F 73.2 °F 78% 29.67 in 7.0 mi South 25.3 mph 32.2 mph N/A   Mostly Cloudy
6:15 PM 79.9 °F - 73.4 °F 80% 29.67 in 7.0 mi South 18.4 mph 39.1 mph N/A   Mostly Cloudy
6:35 PM 79.7 °F - 73.4 °F 81% 29.67 in 7.0 mi South 24.2 mph 29.9 mph N/A   Overcast
6:55 PM 79.7 °F - 73.4 °F 81% 29.66 in 7.0 mi South 23.0 mph 35.7 mph N/A   Overcast
7:15 PM 79.0 °F - 73.4 °F 83% 29.66 in 7.0 mi South 18.4 mph 32.2 mph N/A   Overcast
7:35 PM 78.8 °F - 73.4 °F 83% 29.67 in 7.0 mi South 20.7 mph 29.9 mph N/A   Overcast
7:55 PM 78.8 °F - 73.4 °F 83% 29.67 in 7.0 mi South 19.6 mph 27.6 mph N/A   Overcast
8:15 PM 78.8 °F - 73.4 °F 83% 29.68 in 7.0 mi South 19.6 mph 29.9 mph N/A   Overcast
8:35 PM 78.8 °F - 73.6 °F 84% 29.69 in 7.0 mi South 15.0 mph 24.2 mph N/A   Overcast
8:55 PM 78.8 °F - 73.4 °F 83% 29.70 in 7.0 mi South 19.6 mph 27.6 mph N/A   Overcast
9:15 PM 78.8 °F - 73.6 °F 84% 29.70 in 7.0 mi South 17.3 mph 26.5 mph N/A   Overcast
9:55 PM 78.8 °F - 73.6 °F 84% 29.71 in 7.0 mi South 15.0 mph 23.0 mph N/A   Overcast
10:15 PM 78.8 °F - 73.6 °F 84% 29.72 in 7.0 mi South 12.7 mph 24.2 mph N/A   Overcast
10:35 PM 78.8 °F - 73.6 °F 84% 29.72 in 7.0 mi South 17.3 mph 20.7 mph N/A   Overcast
10:55 PM 78.8 °F - 73.4 °F 83% 29.72 in 7.0 mi South 18.4 mph 25.3 mph N/A   Overcast
11:15 PM 78.4 °F - 73.6 °F 85% 29.72 in 7.0 mi South 18.4 mph 25.3 mph N/A   Overcast
11:35 PM 78.4 °F - 73.6 °F 85% 29.72 in 7.0 mi South 16.1 mph 24.2 mph N/A   Overcast
11:55 PM 78.3 °F - 73.8 °F 86% 29.71 in 5.0 mi South 16.1 mph 26.5 mph N/A   Overcast